Terminal Aerodrome Forecast
Issued by NWS

Home | Current Version | Previous Version | Text Only | Print | Product List | Glossary On
Versions: 1 2 3 4 5 6 7 8 9 10 11 12 13 14 15 16 17 18 19 20 21 22 23 24 25
000
FTUS41 KGYX 302328
TAFRKD
TAF
KRKD 302328Z 3100/3124 20004KT 4SM BR SCT050 OVC150
     FM310130 21004KT 4SM -SHRA BR BKN009 BKN050 OVC080
     FM310900 27005KT P6SM SKC
      AMD LTD TO CLD VIS AND WIND=

USA.gov is the U.S. government's official web portal to all federal, state and local government web resources and services.